[[{"header":{"parameterUnit":"m.s-1","parameterCategory":1,"la1":30.2991,"la2":30.254,"lo1":-89.0895,"lo2":-89.0444,"dy":0.0017,"dx":0.0017,"nx":28,"ny":28,"refTime":"2024-12-14T03:00:00:Z","depth":0,"parameterNumber":2,"parameterNumberName":"U-component_of_WINDS"},"data":[0,0,0,0,0,0,0,0,0,0,0,0,0,0,0,0,0,0,0,0,0,0,0,0,0,0,0,0,0,0,0,0,0,0,0,0,0,0,0,0,0,0,0,0,0,0,0,0,0,0,0,0,0,0,0,0,0,0,-5.1911,-5.1912,0,-5.1977,-5.1977,-5.1978,-5.1825,-5.182,-5.1815,-5.181,-5.1882,-5.1888,-5.1895,0,0,0,0,0,0,0,0,0,0,0,0,0,-5.1658,-5.1663,-5.1911,-5.1912,-5.1913,-5.1977,-5.1978,-5.1978,-5.1825,-5.1819,-5.1814,-5.1808,-5.188,-5.1888,-5.1895,0,0,0,0,0,0,0,0,0,0,0,0,0,-5.175,-5.1665,-5.1911,-5.1844,-5.1839,-5.1976,-5.1978,-5.1979,-5.1827,-5.1819,-5.1812,-5.1805,-5.1877,-5.1887,-5.1897,-5.2104,0,0,-5.1926,-5.193,0,0,0,0,0,0,0,0,-5.1745,-5.176,-5.1853,-5.1849,-5.1843,-5.1885,-5.1914,-5.2021,-5.1829,-5.1832,-5.181,-5.1802,-5.1889,-5.1898,-5.1926,-5.2107,-5.211,-5.1927,-5.1933,-5.1937,-5.194,0,0,0,0,0,0,0,-5.1739,-5.1756,-5.1937,-5.1855,-5.1849,-5.1812,-5.1817,-5.1934,-5.1901,-5.1831,-5.182,-5.1829,-5.1885,-5.1917,-5.1927,-5.2111,-5.1927,-5.1935,-5.1941,-5.1945,-5.2466,-5.2474,0,0,0,0,0,0,-5.1741,-5.1752,-5.1935,-5.1939,-5.1775,-5.1823,-5.1828,-5.1879,-5.1899,-5.1895,-5.1835,-5.1822,-5.1904,-5.1916,-5.1929,-5.2174,-5.1937,-5.1946,-5.1952,-5.2458,-5.2468,-5.2477,0,0,0,0,0,0,-5.1736,-5.1758,-5.1932,-5.1843,-5.1862,-5.1835,-5.1893,-5.1884,-5.1916,-5.1903,-5.1897,-5.1874,-5.1899,-5.1915,-5.2061,-5.2174,-5.1951,-5.1959,-5.2449,-5.2461,-5.2472,-5.2665,0,0,0,0,0,0,-5.1729,-5.1758,-5.1835,-5.1845,-5.1867,-5.2064,-5.19,-5.1891,-5.1933,-5.1915,-5.1937,-5.1934,-5.1894,-5.2048,-5.2071,-5.2183,-5.1967,-5.2439,-5.2454,-5.2469,-5.2649,-5.2682,-5.2711,0,0,0,0,0,-5.1721,-5.1888,-5.184,-5.1863,-5.1964,-5.207,-5.2083,-5.2033,-5.1942,-5.2021,-5.2012,-5.1933,-5.2157,-5.2064,-5.2089,-5.2206,-5.2431,-5.245,-5.2467,-5.2635,-5.2676,-5.271,0,0,0,0,0,0,-5.1894,-5.1888,-5.1835,-5.201,-5.2042,-5.2044,-5.2142,-5.2077,-5.2137,-5.2118,-5.2054,-5.2061,-5.222,-5.2227,-5.2123,-5.2408,-5.2279,-5.2303,-5.2398,-5.2437,-5.2467,-5.2464,-5.1975,0,0,0,0,0,-5.1952,-5.2037,-5.2028,-5.2184,-5.2202,-5.217,-5.2214,-5.2172,-5.2203,-5.2216,-5.2218,-5.2253,-5.233,-5.2383,-5.2454,-5.2648,-5.2652,-5.2741,-5.2772,-5.2798,-5.282,-5.2924,-5.2964,-5.2536,-5.2536,-5.2535,0,0,-5.2074,-5.2081,-5.214,-5.2219,-5.2238,-5.233,-5.2182,-5.2285,-5.2353,-5.2232,-5.2371,-5.2373,-5.2407,-5.2579,-5.2654,-5.259,-5.2939,-5.2821,-5.2841,-5.285,-5.2947,-5.2988,-5.3024,-5.2548,-5.2546,-5.2544,0,0,-5.2343,-5.2357,-5.2488,-5.251,-5.2541,-5.2518,-5.255,-5.2562,-5.2559,-5.2696,-5.2607,-5.2687,-5.2823,-5.2851,-5.2883,-5.3162,-5.3093,-5.3187,-5.3351,-5.3454,-5.3487,-5.3517,-5.3619,-5.3656,-5.3209,-5.3209,-5.3209,0,-5.2492,-5.2625,-5.2564,-5.2674,-5.2712,-5.2604,-5.2738,-5.2763,-5.2816,-5.2846,-5.2772,-5.294,-5.2955,-5.3132,-5.32,-5.3229,-5.3264,-5.3186,-5.3487,-5.3516,-5.3543,-5.3639,-5.3678,-5.3221,-5.3219,-5.3218,-5.3217,0,-5.2806,-5.29,-5.3003,-5.3055,-5.3105,-5.3226,-5.3185,-5.3243,-5.3196,-5.3182,-5.3324,-5.3337,-5.341,-5.3448,-5.3404,-5.362,-5.3579,-5.3497,-5.3367,-5.3596,-5.3686,-5.3722,-5.3237,-5.3233,-5.3229,-5.3227,0,0,-5.3189,-5.3205,-5.3244,-5.3267,-5.3293,-5.3365,-5.3481,-5.355,-5.3602,-5.3642,-5.3739,-5.3856,-5.378,-5.3817,-5.3775,-5.3865,-5.4087,-5.3772,-5.3772,-5.3832,-5.4327,-5.4391,-5.4434,-5.404,-5.4046,-5.4052,-5.4325,0,-5.3457,-5.3655,-5.3604,-5.3803,-5.389,-5.3788,-5.389,-5.3917,-5.3907,-5.398,-5.3967,-5.4052,-5.3945,-5.3966,-5.405,-5.4043,-5.4186,-5.4022,-5.4132,-5.4137,-5.413,-5.448,-5.4548,-5.4805,-5.4359,-5.4365,-5.437,0,-5.3796,-5.3848,-5.4055,-5.4066,-5.4101,-5.4193,-5.4253,-5.4323,-5.4352,-5.4338,-5.4379,-5.4319,-5.4436,-5.4302,-5.4463,-5.4353,-5.4394,-5.4397,-5.4406,-5.4417,-5.4269,-5.4503,-5.4886,-5.4926,-5.4424,-5.4419,-5.4415,0,-5.4058,-5.4179,-5.4318,-5.4341,-5.4357,-5.4424,-5.4435,-5.4456,-5.4501,-5.4553,-5.4582,-5.4648,-5.4685,-5.4738,-5.4698,-5.4604,-5.4866,-5.4729,-5.486,-5.4861,-5.4922,-5.4919,-5.5319,-5.4945,-5.4944,-5.4944,-5.4943,0,-5.4363,-5.4495,-5.4436,-5.4522,-5.4667,-5.4606,-5.4751,-5.475,-5.477,-5.4856,-5.4771,-5.4854,-5.4794,-5.4872,-5.4842,-5.4981,-5.4997,-5.4991,-5.4982,-5.5,-5.5002,-5.5029,-5.5011,-5.4954,-5.4952,-5.495,-5.4948,0,-5.4681,-5.4646,-5.4792,-5.4795,-5.4798,-5.4905,-5.4908,-5.4989,-5.4971,-5.508,-5.5102,-5.5075,-5.5162,-5.5127,-5.5219,-5.5199,-5.5377,-5.5343,-5.5368,-5.536,-5.5493,-5.5482,-5.5927,-5.5983,-5.5571,-5.5575,-5.5578,0,-5.488,-5.4978,-5.4991,-5.5041,-5.5057,-5.5139,-5.5184,-5.5128,-5.5179,-5.522,-5.5296,-5.5375,-5.5436,-5.558,-5.557,-5.5641,-5.5609,-5.576,-5.562,-5.5635,-5.5614,-5.561,-5.5621,-5.579,-5.5794,-5.5798,-5.5801,0,-5.5237,-5.5215,-5.5282,-5.5344,-5.54,-5.5446,-5.5485,-5.5532,-5.5478,-5.5539,-5.5626,-5.5673,-5.5767,-5.5848,-5.591,-5.5922,-5.5855,-5.5845,-5.5879,-5.5901,-5.5912,-5.591,-5.5447,-5.5836,-5.5832,-5.583,-5.5828,-5.5827,-5.5503,-5.5586,-5.5608,-5.5686,-5.5709,-5.5747,-5.5824,-5.5814,-5.5886,-5.5957,-5.5919,-5.6022,-5.6048,-5.6125,-5.6146,-5.6226,-5.6167,-5.6217,-5.623,-5.6244,-5.6262,-5.5896,-5.6237,-5.6236,-5.6235,-5.6234,-5.6233,0,-5.5858,-5.5866,-5.5938,-5.5995,-5.6057,-5.5985,-5.6024,-5.6082,-5.6172,-5.6202,-5.6263,-5.6364,-5.6441,-5.6436,-5.6508,-5.6574,-5.6545,-5.6595,-5.6591,-5.6595,-5.6309,-5.6274,-5.6617,-5.6617,-5.6617,-5.6617,-5.6617,-5.6617,-5.605,-5.6187,-5.6168,-5.6316,-5.6323,-5.6422,-5.6451,-5.6486,-5.651,-5.6626,-5.6689,-5.6685,-5.6701,-5.6774,-5.6842,-5.6839,-5.687,-5.6933,-5.6919,-5.6653,-5.6615,-5.6579,-5.6545,-5.694,-5.694,-5.7197,-5.72,-5.7202]},{"header":{"parameterUnit":"m.s-1","parameterCategory":1,"la1":30.2991,"la2":30.254,"lo1":-89.0895,"lo2":-89.0444,"dy":0.0017,"dx":0.0017,"nx":28,"ny":28,"refTime":"2024-12-14T03:00:00:Z","depth":0,"parameterNumber":3,"parameterNumberName":"V-component_of_WINDS"},"data":[0,0,0,0,0,0,0,0,0,0,0,0,0,0,0,0,0,0,0,0,0,0,0,0,0,0,0,0,0,0,0,0,0,0,0,0,0,0,0,0,0,0,0,0,0,0,0,0,0,0,0,0,0,0,0,0,0,0,-1.6082,-1.6083,0,-1.6116,-1.6117,-1.6117,-1.6105,-1.6104,-1.6104,-1.6103,-1.6137,-1.6138,-1.614,0,0,0,0,0,0,0,0,0,0,0,0,0,-1.6005,-1.6006,-1.6082,-1.6083,-1.6083,-1.6116,-1.6117,-1.6117,-1.6105,-1.6104,-1.6103,-1.6103,-1.6136,-1.6138,-1.614,0,0,0,0,0,0,0,0,0,0,0,0,0,-1.6039,-1.6007,-1.6082,-1.6081,-1.6081,-1.6116,-1.6117,-1.6117,-1.6105,-1.6104,-1.6103,-1.6102,-1.6136,-1.6138,-1.614,-1.6178,0,0,-1.6148,-1.6149,0,0,0,0,0,0,0,0,-1.6037,-1.6041,-1.6081,-1.6081,-1.6082,-1.6105,-1.6102,-1.6137,-1.6106,-1.6096,-1.6103,-1.6102,-1.6127,-1.613,-1.6139,-1.6179,-1.6181,-1.6148,-1.6149,-1.6151,-1.6151,0,0,0,0,0,0,0,-1.6034,-1.604,-1.6096,-1.6081,-1.6082,-1.6078,-1.6082,-1.6109,-1.6118,-1.6097,-1.6096,-1.61,-1.6127,-1.6137,-1.614,-1.6181,-1.6148,-1.615,-1.6152,-1.6153,-1.6252,-1.6253,0,0,0,0,0,0,-1.6032,-1.6038,-1.6094,-1.6097,-1.6056,-1.6081,-1.6085,-1.6099,-1.6117,-1.6119,-1.6101,-1.61,-1.6133,-1.6137,-1.6141,-1.6185,-1.615,-1.6153,-1.6154,-1.6251,-1.6253,-1.6254,0,0,0,0,0,0,-1.6031,-1.6037,-1.6093,-1.6067,-1.6074,-1.6083,-1.6099,-1.61,-1.611,-1.6121,-1.6122,-1.611,-1.6133,-1.6138,-1.6168,-1.6186,-1.6154,-1.6156,-1.625,-1.6252,-1.6253,-1.6273,0,0,0,0,0,0,-1.6028,-1.6037,-1.6052,-1.6068,-1.6075,-1.6121,-1.61,-1.6102,-1.6114,-1.6112,-1.6129,-1.613,-1.6132,-1.6165,-1.6171,-1.6189,-1.6158,-1.6248,-1.6251,-1.6253,-1.6271,-1.6276,-1.628,0,0,0,0,0,-1.6026,-1.6056,-1.6052,-1.6059,-1.6094,-1.6122,-1.6126,-1.6128,-1.6115,-1.613,-1.6137,-1.613,-1.6183,-1.6168,-1.6175,-1.6193,-1.6247,-1.625,-1.6252,-1.6269,-1.6275,-1.6279,0,0,0,0,0,0,-1.6042,-1.6058,-1.6054,-1.6091,-1.6105,-1.612,-1.6138,-1.6134,-1.6151,-1.6149,-1.615,-1.6153,-1.6185,-1.6192,-1.6175,-1.623,-1.6213,-1.6217,-1.6224,-1.6229,-1.6233,-1.623,-1.616,0,0,0,0,0,-1.605,-1.6071,-1.6084,-1.6115,-1.6122,-1.6129,-1.6141,-1.6141,-1.6155,-1.6161,-1.617,-1.6184,-1.6204,-1.6217,-1.6236,-1.6272,-1.6275,-1.6288,-1.6292,-1.6296,-1.6299,-1.6318,-1.6323,-1.6263,-1.6263,-1.6263,0,0,-1.6066,-1.6078,-1.6091,-1.6119,-1.613,-1.6151,-1.6134,-1.6158,-1.6173,-1.6165,-1.6194,-1.6201,-1.6217,-1.625,-1.6265,-1.6257,-1.6316,-1.6299,-1.6302,-1.6303,-1.6321,-1.6327,-1.6332,-1.6265,-1.6264,-1.6264,0,0,-1.6107,-1.6118,-1.6145,-1.6156,-1.6172,-1.6176,-1.6183,-1.6198,-1.6202,-1.6232,-1.6225,-1.6244,-1.6278,-1.6289,-1.6299,-1.6342,-1.6336,-1.6349,-1.637,-1.6388,-1.6393,-1.6397,-1.6411,-1.6417,-1.6352,-1.6352,-1.6352,0,-1.6125,-1.6158,-1.6159,-1.6183,-1.6194,-1.6188,-1.6214,-1.6224,-1.6246,-1.6254,-1.6245,-1.6287,-1.6297,-1.6332,-1.6342,-1.6351,-1.6357,-1.6346,-1.6392,-1.6396,-1.64,-1.6414,-1.6419,-1.6353,-1.6353,-1.6353,-1.6353,0,-1.6179,-1.6201,-1.622,-1.6241,-1.6255,-1.628,-1.6284,-1.6298,-1.6296,-1.6301,-1.6331,-1.6342,-1.6363,-1.6371,-1.637,-1.6406,-1.64,-1.6392,-1.6375,-1.6407,-1.642,-1.6425,-1.6355,-1.6355,-1.6354,-1.6354,0,0,-1.6231,-1.6252,-1.6259,-1.6267,-1.6285,-1.6302,-1.6326,-1.6346,-1.6357,-1.6372,-1.6391,-1.642,-1.6412,-1.6423,-1.6423,-1.6439,-1.6471,-1.6428,-1.6428,-1.6435,-1.651,-1.6516,-1.6522,-1.6467,-1.6468,-1.6469,-1.6508,0,-1.6272,-1.6315,-1.6316,-1.6355,-1.6374,-1.6368,-1.6388,-1.6401,-1.6406,-1.6423,-1.6428,-1.6448,-1.6436,-1.6442,-1.6458,-1.6464,-1.6486,-1.6461,-1.6484,-1.6485,-1.648,-1.6529,-1.6535,-1.6572,-1.6513,-1.6514,-1.6515,0,-1.6326,-1.6342,-1.6383,-1.6396,-1.6405,-1.6423,-1.6441,-1.6458,-1.6471,-1.6473,-1.6486,-1.6483,-1.6506,-1.6489,-1.6521,-1.6504,-1.6514,-1.6518,-1.6519,-1.6521,-1.6501,-1.6531,-1.6583,-1.6588,-1.6523,-1.6522,-1.6522,0,-1.6359,-1.6391,-1.6419,-1.6427,-1.6443,-1.6456,-1.6464,-1.6476,-1.6488,-1.6503,-1.651,-1.6528,-1.6538,-1.6551,-1.6553,-1.6541,-1.6585,-1.6568,-1.6586,-1.6586,-1.6596,-1.6595,-1.665,-1.6603,-1.6603,-1.6603,-1.6603,0,-1.6404,-1.6429,-1.6434,-1.6451,-1.6478,-1.6479,-1.6505,-1.6512,-1.6522,-1.654,-1.6535,-1.6552,-1.6554,-1.657,-1.6572,-1.6597,-1.6602,-1.6604,-1.6604,-1.6604,-1.6604,-1.661,-1.6607,-1.6605,-1.6604,-1.6604,-1.6604,0,-1.6445,-1.6449,-1.6479,-1.6492,-1.6496,-1.6515,-1.6526,-1.6542,-1.6546,-1.6568,-1.6573,-1.6579,-1.6599,-1.6602,-1.6625,-1.6626,-1.6656,-1.6654,-1.6651,-1.6651,-1.6669,-1.6667,-1.6729,-1.6737,-1.6686,-1.6686,-1.6687,0,-1.6473,-1.6492,-1.6507,-1.6518,-1.6526,-1.6545,-1.6556,-1.6558,-1.657,-1.6586,-1.6599,-1.6618,-1.6634,-1.6665,-1.6671,-1.6688,-1.6686,-1.6706,-1.6688,-1.6687,-1.6685,-1.6683,-1.6685,-1.671,-1.671,-1.6711,-1.6711,0,-1.6523,-1.6524,-1.6541,-1.6558,-1.6572,-1.6586,-1.6599,-1.6608,-1.6611,-1.6625,-1.6645,-1.6656,-1.6679,-1.6698,-1.6715,-1.6721,-1.6716,-1.6717,-1.6722,-1.6721,-1.6719,-1.6719,-1.666,-1.6715,-1.6715,-1.6714,-1.6714,-1.6714,-1.6557,-1.6573,-1.6586,-1.6604,-1.6614,-1.6626,-1.6641,-1.6647,-1.6664,-1.6683,-1.6682,-1.6704,-1.6715,-1.6737,-1.6745,-1.6762,-1.6755,-1.6762,-1.6764,-1.6766,-1.6767,-1.6717,-1.6765,-1.6765,-1.6765,-1.6765,-1.6764,0,-1.6606,-1.6613,-1.663,-1.6648,-1.6663,-1.6657,-1.6671,-1.6683,-1.6702,-1.6713,-1.6728,-1.675,-1.6768,-1.6775,-1.6792,-1.6804,-1.6802,-1.6808,-1.6807,-1.6808,-1.6773,-1.6766,-1.6809,-1.6809,-1.6809,-1.6809,-1.6809,-1.6809,-1.6632,-1.6658,-1.6661,-1.6691,-1.6698,-1.6719,-1.6727,-1.6738,-1.6747,-1.6772,-1.6786,-1.6791,-1.6801,-1.6818,-1.6834,-1.6836,-1.6842,-1.6849,-1.6849,-1.6816,-1.6811,-1.6807,-1.68,-1.685,-1.685,-1.6884,-1.6884,-1.6884]}]]